[Date Prev][Date Next][Thread Prev][Thread Next] - [Date Index][Thread Index][Author Index]
2 Line ISS Keps 3-23
- Subject: [sarex] 2 Line ISS Keps 3-23
- From: "Dave Larsen PhD" <doc@xxxxxxxxxxx>
- Date: Wed, 22 Mar 2006 20:16:38 -0800
ISS
1 25544U 98067A 06082.03819563 .00014158 00000-0 98957-4 0 5820
2 25544 051.6433 270.7858 0008839 035.6201 054.0480 15.74551633419584
----
Via the sarex mailing list at AMSAT.ORG courtesy of AMSAT-NA.
To unsubscribe, send "unsubscribe sarex" to Majordomo@amsat.org
AMSAT Home